Flag for U.S.A. Weather past 2 weeks in San Antonio, Texas, U.S.A.

Now
96 °F

Broken clouds.


Feels Like: 100 °F
Forecast: 75 / 96 °F
Wind: 8 mph from Southeast

Location: San Antonio International Airport

Current Time: Aug 30, 2014 at 3:40:15 PM

Latest Report: Aug 30, 2014 at 2:51 PM


Visibility: 10 mi

Pressure: 29.85 "Hg

Humidity: 37%

Dew point: 66 °F

Location of San AntonioLocation

Historic Weather in San Antonio — Graph

°F

San Antonio temperature yesterday

Maximum temperature yesterday: 98 °F (at 3:51 PM)
Minimum temperature yesterday: 77 °F (at 6:51 AM)
Average temperature yesterday: 85 °F

Past Weeks' High & Low Weather Summary

 TemperatureHumidityPressure
High102 °F (Aug 16, 4:51 PM)90% (Aug 29, 6:51 AM)30.07 "Hg (Aug 29, 6:51 AM)
Low76 °F (Aug 28, 5:51 AM)23% (Aug 22, 5:51 PM)29.74 "Hg (Aug 29, 4:51 PM)
Average87 °F57%29.89 "Hg
* Reported Aug 15 1:51 PM — Aug 30 1:51 PM, San Antonio, Weather by CustomWeather, © 2014

Note: Actual official high and low records may vary slightly from our data, if they occured in-between our weather recording intervals... More about our weather records

Advertising

San Antonio weather history for previous 24 hours

 ConditionsComfort  
Time TempWeatherWind HumidityBarometerVisibility
1:51 PM
Aug 30
94 °FScattered clouds.No wind43%29.86 "Hg10 mi
12:51 PM92 °FScattered clouds.3 mph47%29.88 "Hg10 mi
11:51 AM89 °FScattered clouds.6 mph53%29.89 "Hg10 mi
10:51 AM86 °FScattered clouds.7 mph61%29.91 "Hg10 mi
9:51 AM83 °FBroken clouds.5 mph72%29.90 "Hg10 mi
8:51 AM80 °FScattered clouds.No wind79%29.89 "Hg10 mi
7:51 AM78 °FPassing clouds.No wind87%29.88 "Hg10 mi
6:51 AM77 °FPassing clouds.No wind90%29.87 "Hg10 mi
5:51 AM77 °FPassing clouds.No wind90%29.85 "Hg10 mi
4:51 AM77 °FPassing clouds.3 mph90%29.87 "Hg10 mi
3:51 AM79 °FPassing clouds.7 mph84%29.88 "Hg10 mi
2:51 AM79 °FPartly cloudy.7 mph82%29.88 "Hg10 mi
1:51 AM80 °FPartly cloudy.10 mph79%29.88 "Hg10 mi
12:51 AM80 °FPassing clouds.14 mph76%29.87 "Hg10 mi
11:51 PM
Aug 29
82 °FPassing clouds.13 mph70%29.87 "Hg10 mi
10:51 PM84 °FPassing clouds.10 mph63%29.85 "Hg10 mi
9:51 PM86 °FPassing clouds.13 mph55%29.82 "Hg10 mi
8:51 PM87 °FBroken clouds.12 mph51%29.79 "Hg10 mi
7:51 PM89 °FPartly sunny.14 mph50%29.78 "Hg10 mi
6:51 PM93 °FBroken clouds.16 mph41%29.76 "Hg10 mi
5:51 PM94 °FPartly sunny.17 mph43%29.75 "Hg10 mi
4:51 PM97 °FPartly sunny.7 mph35%29.74 "Hg10 mi
3:51 PM98 °FPartly sunny.9 mph33%29.75 "Hg10 mi
Weather by CustomWeather, © 2014

See weather overviewHow to use our weather pages